Regional Weather Roundup
Issued by NWS Goodland, KS

Home | Current Version | Previous Version | Graphics & Text | Print | Product List | Glossary On
Versions: 1 2 3 4 5 6 7 8 9 10 11 12 13 14 15 16 17 18 19 20 21 22 23 24 25 26 27 28 29 30 31 32 33 34 35 36 37 38 39 40 41 42 43 44 45 46 47 48 49 50
000
ASUS43 KGLD 021508
RWRGLD

GOODLAND FORECAST AREA HOURLY WEATHER ROUNDUP
NATIONAL WEATHER SERVICE GOODLAND KS
900 AM MDT WED SEP 02 2015

...OFFICIAL OBSERVATIONS...

CITY           SKY/WX    TMP DP  RH WIND       PRES   REMARKS
GOODLAND KS    SUNNY     81  54  39 NW8       29.99R
HILL CITY KS   SUNNY     82  58  43 SW12      29.93S
IMPERIAL NEB   SUNNY     75  52  44 NW5       29.95F
MCCOOK NEB     SUNNY     75  60  59 W6        29.92S
AKRON CO       SUNNY     76  46  34 NW7       30.06R
BURLINGTON CO  SUNNY     81  54  39 VRB3      30.03S
LIMON CO       MOSUNNY   76  45  33 NW10      30.12R
$$

...UNOFFICIAL OBSERVATIONS...

CITY           SKY/WX    TMP DP  RH WIND       PRES   REMARKS
COLBY KS       SUNNY     79  61  53 SW5       29.96F
GOVE KS          N/A     77  32  19 MISG        N/A
LENORA KS        N/A     79  32  18 MISG        N/A
NORTON KS      SUNNY     79  55  44 S8        29.91
TRENTON NEB      N/A     78  32  18 NW6         N/A
KIT CARSON CO    N/A     78  56  46 MISG        N/A
YUMA CO          N/A     78  51  38 NW9         N/A
$$


USA.gov is the U.S. government's official web portal to all federal, state and local government web resources and services.